                ,  0.730,  0.880,  1.030,  1.180,  1.330,  1.480,  1.630,  1.780,  1.930,  2.080,  2.230,  2.380,  2.530,  2.680,  2.830,  2.980,  3.130,  3.280,  3.430,  3.580,  3.730,  3.880,  4.030,  4.180,  4.330,  4.480,  4.630,  4.780,  4.930,  5.080,  5.230,  5.380
1999/07/18 00:00,   -3.3,   -3.3,   -3.2,   -2.3,   -3.1,   -1.7,   -1.7,   -2.6,   -3.8,   -1.5,   -3.0,   -4.0,   -3.2,   -3.5,   -3.9,   -4.4,   -4.8,   -4.7,   -5.0,   -5.6,   -5.9,   -5.9,   -6.0,   -5.7,   -4.6,   -3.3,   -2.8,   -2.4,   -2.3,   -2.8,   -3.1,   -3.3
1999/07/18 00:10,   -2.0,  999.0,   -1.3,   -2.1,  999.0,   -3.8,   -0.1,  999.0,  999.0,  999.0,  999.0,   -3.5,   -2.6,   -3.3,   -4.6,   -4.8,   -4.8,   -4.8,   -4.7,   -5.0,   -5.0,   -4.8,   -4.7,   -4.8,   -4.6,   -3.2,   -2.6,   -2.3,   -2.4,   -2.6,   -3.1,   -3.3
1999/07/18 00:20,   -1.9,   -1.4,   -1.4,   -1.4,   -1.4,   -4.0,   -3.9,   -4.0,   -4.0,   -4.4,   -4.7,   -4.4,   -4.5,   -4.4,   -4.5,   -4.7,   -4.9,   -4.6,   -5.1,   -5.1,   -4.6,   -4.5,   -4.4,   -4.3,   -4.3,   -3.1,   -2.5,   -2.4,   -2.8,   -3.1,   -3.3,   -3.4
1999/07/18 00:30,   -2.5,   -4.0,   -3.8,   -4.7,   -0.1,   -3.6,   -4.1,   -4.4,   -4.7,   -4.8,   -4.9,   -5.4,   -5.4,   -5.8,   -5.7,   -5.9,   -5.8,   -5.9,   -5.9,   -5.8,   -5.7,   -5.5,   -5.4,   -4.9,   -4.5,   -3.4,   -2.8,   -2.9,   -3.2,   -3.2,   -3.2,   -3.2
1999/07/18 00:40,   -1.1,   -2.8,   -2.5,   -3.5,   -0.1,   -3.1,   -3.9,   -3.7,   -4.0,   -4.0,   -4.4,   -4.6,   -4.6,   -5.1,   -5.3,   -5.2,   -4.9,   -5.0,   -5.4,   -5.1,   -5.4,   -5.3,   -5.0,   -4.8,   -4.5,   -3.2,   -2.9,   -3.2,   -3.2,   -3.1,   -3.2,   -3.2
1999/07/18 00:50,  999.0,  999.0,  999.0,   -1.4,  999.0,   -2.1,   -1.6,  999.0,  999.0,   -0.7,   -0.7,   -1.6,   -3.4,  999.0,   -3.8,   -4.0,   -4.0,   -3.6,   -4.3,   -4.2,   -4.0,   -3.7,   -3.4,   -3.2,   -3.0,   -2.9,   -2.7,   -2.9,   -3.0,   -3.1,   -3.0,   -2.8
1999/07/18 01:00,   -0.5,   -0.4,   -0.3,   -0.2,   -0.1,   -0.1,   -0.2,  999.0,   -0.5,   -0.6,  999.0,   -0.9,   -1.3,   -1.6,   -2.2,   -3.3,   -3.2,   -3.3,   -3.4,   -3.4,   -3.2,   -2.7,   -2.5,   -2.3,   -2.4,   -2.8,   -2.6,   -2.6,   -2.8,   -3.0,   -2.8,   -2.7
1999/07/18 01:10,   -0.5,   -0.4,   -0.2,   -0.2,   -0.1,  999.0,   -0.2,  999.0,   -0.5,   -0.7,   -0.7,   -1.1,   -1.5,  999.0,   -1.8,  999.0,  999.0,  999.0,  999.0,  999.0,  999.0,   -2.0,   -1.7,  999.0,  999.0,   -3.2,   -3.0,   -3.0,   -3.0,   -3.0,   -2.9,   -2.8
1999/07/18 01:20,   -0.6,   -0.4,   -0.2,   -0.2,  999.0,   -0.2,  999.0,  999.0,   -0.6,   -0.6,   -0.6,   -1.1,   -1.4,  999.0,   -1.7,  999.0,  999.0,  999.0,   -1.8,   -1.6,   -1.2,   -0.9,   -0.8,   -0.6,   -1.0,   -2.1,  999.0,   -3.3,   -3.3,   -3.1,   -3.0,   -2.6
1999/07/18 01:30,   -0.4,   -0.3,   -0.2,   -0.2,   -0.1,  999.0,  999.0,   -0.4,   -0.7,  999.0,   -0.7,   -1.2,   -1.4,  999.0,   -1.7,   -1.7,   -1.8,   -1.9,   -1.7,   -1.6,   -1.2,   -1.1,   -0.6,   -0.4,   -1.1,   -1.6,  999.0,   -3.1,  999.0,  999.0,  999.0,   -1.5
1999/07/18 01:40,   -0.3,   -0.3,  999.0,   -0.2,   -0.1,  999.0,   -0.2,   -0.3,   -0.6,  999.0,   -0.7,   -1.2,   -1.5,   -1.6,   -1.7,  999.0,  999.0,  999.0,  999.0,  999.0,   -1.4,   -1.2,   -0.8,  999.0,   -1.2,   -1.3,  999.0,  999.0,   -2.2,   -2.2,   -1.8,  999.0
1999/07/18 01:50,   -0.2,   -0.3,   -0.2,   -0.1,  999.0,   -0.1,   -0.2,   -0.4,   -0.6,   -0.7,   -0.8,   -1.2,   -1.5,   -1.6,   -1.7,   -4.9,   -4.8,   -5.2,   -4.3,   -4.4,   -4.8,   -3.1,   -0.9,  999.0,   -1.2,  999.0,   -3.6,   -3.8,   -3.3,   -3.4,   -2.8,   -2.9
1999/07/18 02:00,   -0.2,   -0.3,   -0.3,   -0.2,   -0.1,   -0.1,   -0.3,   -0.7,  999.0,  999.0,   -0.9,   -1.3,   -1.7,   -1.8,   -2.7,   -2.8,   -3.2,   -2.9,   -3.9,  999.0,   -2.9,   -1.6,   -1.0,  999.0,   -1.3,   -1.8,   -2.8,   -1.9,   -1.8,   -1.7,   -1.6,  999.0
1999/07/18 02:10,   -0.1,   -0.4,   -0.3,  999.0,   -0.2,   -0.1,   -0.4,   -0.7,  999.0,  999.0,  999.0,   -1.5,   -1.7,   -3.0,   -5.0,   -5.4,   -5.1,   -5.4,   -4.7,   -5.0,   -4.7,   -4.1,   -3.4,   -4.7,   -3.8,   -3.6,   -4.0,   -2.8,   -2.7,   -2.4,  999.0,   -3.3
1999/07/18 02:20,   -0.2,   -1.6,  999.0,  999.0,  999.0,  999.0,  999.0,   -3.9,   -5.1,   -5.3,   -5.9,   -6.4,   -6.7,   -7.1,   -7.1,   -7.2,   -7.3,   -7.2,   -7.0,   -6.7,   -6.6,   -6.5,   -6.5,   -6.9,   -7.0,   -4.7,   -4.4,   -3.9,   -3.6,   -3.5,   -3.3,   -3.1
1999/07/18 02:30,   -2.8,   -4.2,   -4.1,  999.0,   -0.2,   -0.4,  999.0,   -5.1,   -5.0,   -5.5,   -6.0,  999.0,   -6.9,   -7.0,   -7.0,   -7.1,   -7.1,   -7.0,   -6.9,   -6.6,   -6.3,   -6.2,   -6.2,   -6.3,   -6.5,   -4.6,   -4.1,   -3.7,   -3.2,   -3.3,   -3.0,   -2.8
1999/07/18 02:40,   -3.5,   -3.3,   -1.8,   -3.3,   -0.2,   -0.6,   -5.0,   -5.1,   -3.8,   -3.4,   -5.5,   -3.1,   -6.3,   -5.5,   -6.5,   -6.6,   -6.7,   -6.3,   -4.6,   -4.1,   -3.9,   -4.3,   -3.8,   -4.4,   -4.3,   -4.1,   -3.5,   -3.0,   -2.7,   -2.5,   -2.5,   -2.3
1999/07/18 02:50,   -0.3,   -0.2,  999.0,   -0.2,  999.0,  999.0,   -0.6,   -0.6,   -0.5,   -0.6,  999.0,   -1.4,  999.0,   -4.4,   -5.7,   -5.6,   -5.5,   -5.0,   -5.0,   -4.1,   -4.7,   -4.5,  999.0,  999.0,  999.0,   -4.3,   -3.8,   -3.2,   -2.8,   -2.5,   -2.5,   -2.3
1999/07/18 03:00,   -0.2,   -0.1,   -0.1,   -0.2,   -0.2,  999.0,   -0.6,   -0.6,  999.0,   -0.7,   -1.2,   -1.4,   -1.8,  999.0,  999.0,  999.0,  999.0,  999.0,  999.0,  999.0,  999.0,  999.0,   -1.7,   -3.2,  999.0,  999.0,  999.0,   -2.8,   -2.4,   -2.6,   -2.2,   -2.4
1999/07/18 03:10,    0.0,    0.0,   -0.1,  999.0,   -0.2,  999.0,  999.0,   -0.6,   -0.6,  999.0,   -1.2,  999.0,   -1.5,  999.0,  999.0,  999.0,  999.0,  999.0,  999.0,   -3.2,   -3.0,   -2.6,   -1.9,   -2.2,   -2.3,  999.0,   -2.3,   -1.7,   -1.7,   -1.5,   -1.6,   -2.2
1999/07/18 03:20,   -0.1,   -0.0,   -0.1,   -0.1,   -0.3,  999.0,   -0.4,   -0.5,  999.0,   -0.7,  999.0,   -1.2,   -1.4,   -1.3,   -1.3,  999.0,   -2.0,  999.0,  999.0,   -3.0,   -2.7,   -1.7,   -1.9,   -2.2,   -1.9,   -1.8,   -1.7,   -1.7,   -1.6,   -1.6,   -1.5,   -1.7
1999/07/18 03:30,   -0.2,   -0.1,   -0.2,   -0.2,   -0.2,  999.0,  999.0,   -0.3,  999.0,   -0.6,   -1.0,   -1.2,   -1.4,  999.0,   -1.3,   -1.7,  999.0,  999.0,   -1.9,  999.0,  999.0,   -1.5,   -1.6,  999.0,   -1.8,   -1.6,   -1.5,   -1.5,  999.0,  999.0,  999.0,   -1.4
1999/07/18 03:40,   -0.2,  999.0,  999.0,  999.0,   -0.2,  999.0,  999.0,   -0.5,  999.0,  999.0,   -1.0,   -1.4,   -1.5,   -1.5,   -1.6,   -1.8,   -2.1,  999.0,   -2.0,  999.0,  999.0,   -2.0,   -2.1,   -1.9,   -1.8,   -1.6,   -1.5,   -1.6,  999.0,   -1.4,  999.0,  999.0
1999/07/18 03:50,   -0.3,  999.0,  999.0,  999.0,   -0.2,  999.0,  999.0,  999.0,   -0.6,   -0.8,   -1.0,   -1.4,   -1.5,   -1.5,  999.0,  999.0,   -1.9,   -2.2,  999.0,  999.0,   -1.8,   -1.8,   -2.0,   -1.8,  999.0,   -1.6,  999.0,   -2.1,   -2.3,   -2.1,   -1.9,   -2.1
1999/07/18 04:00,   -0.3,   -0.2,  999.0,   -0.1,   -0.3,  999.0,  999.0,   -0.2,   -0.4,   -0.9,   -1.2,   -1.4,   -1.5,  999.0,  999.0,  999.0,   -1.6,   -2.0,  999.0,  999.0,  999.0,  999.0,   -1.9,   -1.8,   -1.5,   -1.5,  999.0,   -1.5,   -2.2,   -2.2,   -1.6,   -1.9
1999/07/18 04:10,   -0.3,  999.0,   -0.4,   -0.2,   -0.5,  999.0,   -0.3,   -0.3,   -0.2,   -0.6,   -1.0,   -1.3,   -1.5,   -2.1,  999.0,   -2.5,   -1.7,   -1.7,   -2.0,  999.0,  999.0,   -2.0,   -2.1,   -1.4,   -1.5,   -1.5,   -1.6,  999.0,  999.0,  999.0,   -2.0,   -2.0
1999/07/18 04:20,   -0.4,  999.0,  999.0,   -0.4,   -0.3,  999.0,  999.0,   -0.2,   -0.2,   -0.3,   -0.8,   -1.3,   -1.6,  999.0,   -3.1,  999.0,   -1.8,   -2.2,  999.0,  999.0,  999.0,  999.0,  999.0,   -1.6,   -1.5,   -1.5,   -1.9,  999.0,   -2.2,   -2.2,   -2.1,   -2.0
1999/07/18 04:30,   -0.4,   -0.2,  999.0,   -0.4,  999.0,  999.0,  999.0,  999.0,  999.0,   -0.5,   -0.9,   -1.4,   -1.7,   -4.6,   -4.3,   -5.0,   -1.8,   -1.9,   -2.0,   -4.0,   -4.8,   -4.6,   -4.8,   -4.1,   -4.4,   -4.2,   -2.8,   -2.4,   -2.4,   -2.3,   -2.2,   -2.1
1999/07/18 04:40,   -0.5,   -0.3,  999.0,   -0.4,   -0.3,  999.0,  999.0,  999.0,  999.0,   -0.4,   -0.7,   -1.4,   -1.6,   -4.9,   -4.8,   -4.8,   -4.9,   -2.7,   -2.7,   -3.6,   -3.4,   -4.8,   -5.0,   -4.6,   -4.4,   -4.3,   -3.3,   -2.5,   -2.4,   -2.3,   -2.5,   -2.3
1999/07/18 04:50,   -2.5,   -2.3,  999.0,  999.0,   -1.2,   -4.6,   -4.4,   -4.2,   -4.2,   -4.5,   -4.9,   -4.9,   -5.6,   -5.4,   -5.1,   -5.7,   -5.5,   -5.3,   -5.4,   -5.3,   -5.3,   -5.2,   -4.2,   -4.1,   -3.8,   -5.0,   -4.4,   -4.0,   -4.0,   -3.5,   -3.2,   -3.3
1999/07/18 05:00,   -4.7,   -5.5,   -4.0,   -5.8,   -5.3,   -5.6,   -5.6,   -5.9,   -4.9,   -5.5,   -6.2,   -7.0,   -7.6,   -7.5,   -7.1,   -7.6,   -7.4,   -7.6,   -7.8,   -7.6,   -7.5,   -7.2,   -7.3,   -6.9,   -7.0,   -5.4,   -4.4,   -4.0,   -4.2,   -3.9,   -3.8,   -3.6
1999/07/18 05:10,   -5.4,   -5.8,   -5.7,   -5.7,   -5.9,   -6.0,   -6.1,   -6.5,   -6.1,   -6.2,   -6.4,   -6.7,   -7.7,   -6.4,   -7.7,   -7.8,   -7.6,   -6.6,   -7.6,   -7.4,   -7.2,   -7.2,   -7.1,   -7.0,   -6.4,   -4.8,   -4.2,   -3.8,   -3.9,   -3.8,   -3.5,   -3.4
1999/07/18 05:20,   -5.8,   -5.7,   -5.8,   -5.8,   -5.7,   -5.6,   -5.7,   -5.7,   -5.8,   -6.0,   -5.4,   -5.8,   -6.0,   -5.9,   -6.2,   -4.9,   -5.7,   -5.7,   -5.0,   -5.9,   -5.5,   -6.0,   -6.1,   -6.1,   -7.0,   -5.1,   -4.2,   -3.7,   -3.3,   -3.2,   -2.9,   -2.9
1999/07/18 05:30,   -4.9,   -5.6,   -5.2,   -5.9,   -4.7,   -4.4,   -5.1,   -5.4,   -4.8,   -4.6,   -4.3,   -4.5,   -4.9,   -5.0,   -5.0,   -4.9,   -4.9,   -4.8,   -4.6,   -5.1,   -4.4,   -5.2,   -5.0,   -5.1,   -5.9,   -5.1,   -4.5,   -4.2,   -4.1,   -3.8,   -3.5,   -3.2
1999/07/18 05:40,   -5.4,   -5.5,   -5.9,   -5.0,   -5.3,   -4.8,   -5.2,   -5.7,   -4.3,   -5.1,   -5.1,   -6.0,   -5.9,   -6.3,   -6.5,   -6.5,   -6.3,   -6.1,   -6.6,   -6.1,   -6.3,   -6.2,   -6.4,   -6.9,   -5.8,   -4.7,   -4.4,   -4.4,   -4.4,   -4.3,   -4.2,   -4.0
1999/07/18 05:50,   -4.1,   -4.1,  999.0,   -4.0,   -3.8,   -3.8,   -4.6,   -3.5,   -5.0,   -5.1,   -5.5,   -6.0,   -6.5,   -6.4,   -6.7,   -6.6,   -6.5,   -6.5,   -6.6,   -6.4,   -6.4,   -6.4,   -6.7,   -6.8,   -5.0,   -4.5,   -4.5,   -4.6,   -4.6,   -4.5,   -4.4,   -4.3
1999/07/18 06:00,   -4.5,   -5.1,   -5.4,   -5.2,   -4.9,   -5.1,   -5.6,   -5.6,   -5.9,   -5.8,   -6.5,   -6.9,   -7.1,   -7.1,   -7.2,   -7.3,   -7.0,   -7.1,   -7.1,   -7.0,   -7.3,   -7.5,   -7.7,   -7.8,   -5.7,   -4.6,   -4.4,   -4.4,   -4.3,   -4.2,   -4.0,   -3.9
1999/07/18 06:10,   -5.2,   -5.2,   -5.5,   -5.5,   -5.2,   -5.5,   -5.7,   -5.9,   -5.8,   -6.0,   -6.7,   -6.9,   -7.1,   -7.1,   -7.0,   -6.9,   -6.8,   -6.6,   -6.7,   -7.0,   -7.1,   -7.2,   -7.3,   -7.6,   -6.7,   -4.9,   -4.3,   -4.3,   -4.1,   -4.0,   -3.6,   -3.6
1999/07/18 06:20,   -4.3,   -4.6,   -4.6,   -4.5,   -4.4,   -4.7,   -5.1,   -5.0,   -5.0,   -5.4,   -5.8,   -5.7,   -5.7,   -5.6,   -5.6,   -5.6,   -5.6,   -5.4,   -5.5,   -5.5,   -5.8,   -6.1,   -5.8,   -6.2,   -5.7,   -4.5,   -4.0,   -4.0,   -3.6,   -3.4,   -3.4,   -3.4
1999/07/18 06:30,   -1.1,   -0.1,   -4.2,   -4.4,   -3.7,   -4.9,   -4.7,   -5.1,  999.0,  999.0,   -5.8,   -5.6,   -5.7,   -5.6,   -5.5,   -5.4,   -5.3,   -5.3,   -5.2,   -5.2,   -5.2,   -5.4,   -5.6,   -5.6,   -5.8,   -5.2,   -4.4,   -4.0,   -3.6,   -3.4,   -3.3,   -3.2
1999/07/18 06:40,    0.0,   -0.2,   -4.1,   -4.1,   -4.3,   -4.4,   -4.5,   -4.5,   -5.0,   -5.8,   -5.9,   -5.9,   -5.9,   -5.9,   -5.8,   -5.9,   -6.0,   -6.2,   -6.3,   -6.3,   -6.4,   -6.5,   -6.5,   -6.5,   -6.8,   -5.2,   -4.6,   -4.3,   -3.9,   -3.6,   -3.3,   -3.1
1999/07/18 06:50,   -2.2,   -2.9,   -4.2,   -4.3,   -4.3,   -4.5,   -4.5,   -4.5,   -4.7,   -4.7,   -5.2,   -5.0,   -4.9,   -4.9,   -4.8,   -4.9,   -4.9,   -4.8,   -5.0,   -5.4,   -5.3,   -5.5,   -5.3,   -5.4,   -5.7,   -5.8,   -4.9,   -4.3,   -3.9,   -3.4,   -3.3,   -3.2
1999/07/18 07:00,   -0.9,    0.1,   -1.7,  999.0,   -1.0,  999.0,   -2.6,  999.0,   -0.9,   -1.3,   -3.2,   -4.1,   -4.3,   -4.1,   -4.1,   -3.9,   -3.8,   -3.7,   -3.9,   -4.3,   -4.3,   -4.3,   -4.4,   -4.7,   -5.0,   -4.4,   -4.5,   -3.9,   -3.2,   -3.1,   -2.9,   -2.7
1999/07/18 07:10,   -4.9,    0.4,   -1.3,   -3.4,   -5.7,   -5.7,   -5.2,   -5.0,   -3.4,   -6.3,   -6.5,   -6.9,   -7.2,   -7.4,   -7.4,   -7.2,   -7.1,   -7.4,   -7.3,   -7.4,   -7.3,   -7.4,   -7.4,   -7.5,   -7.9,   -6.6,   -5.2,   -4.5,   -4.2,   -3.8,   -3.6,   -3.3
1999/07/18 07:20,   -3.9,   -1.8,   -4.1,   -4.2,   -4.6,   -4.8,   -4.8,   -5.0,   -5.4,   -5.5,   -5.8,   -6.2,   -6.3,   -6.3,   -6.3,   -6.2,   -6.3,   -6.4,   -6.2,   -6.0,   -6.1,   -5.9,   -5.9,   -5.9,   -6.0,   -5.8,   -4.7,   -4.1,   -3.7,   -3.4,   -3.3,   -3.1
1999/07/18 07:30,   -3.3,   -0.8,   -2.6,   -3.5,   -3.5,   -3.8,   -3.8,   -3.7,   -3.7,   -4.5,   -4.8,   -5.0,   -5.1,   -5.3,   -5.2,   -5.2,   -5.2,   -5.1,   -5.0,   -4.9,   -4.7,   -4.7,   -4.6,   -4.5,   -4.3,   -4.3,   -4.0,   -3.4,   -3.1,   -2.9,   -3.0,   -2.8
1999/07/18 07:40,   -1.7,    0.3,    0.1,   -0.6,   -1.8,   -1.1,   -1.2,   -0.7,   -0.8,   -1.7,   -3.2,   -3.8,   -3.6,   -3.7,   -3.7,   -4.2,   -4.2,   -4.1,   -4.2,   -4.0,   -3.8,   -3.8,   -3.7,   -3.3,   -3.1,   -3.0,   -3.0,   -2.9,   -1.9,   -2.3,   -2.3,   -1.8
1999/07/18 07:50,    0.0,    0.1,   -0.0,   -0.1,   -0.2,   -0.4,   -0.6,   -0.7,   -1.0,   -1.7,   -2.0,   -2.3,   -2.5,   -2.5,   -2.3,   -2.4,  999.0,   -2.2,   -2.0,  999.0,   -2.9,   -2.9,   -2.9,   -3.0,   -2.8,   -2.3,   -2.0,   -1.8,   -1.6,  999.0,  999.0,   -1.5
1999/07/18 08:00,   -0.0,    0.1,   -0.1,   -0.3,   -0.2,   -0.3,   -0.8,   -0.7,   -1.0,   -1.5,   -1.7,   -1.9,   -2.1,   -2.1,   -2.1,   -2.0,   -2.1,   -2.1,   -2.1,   -2.2,  999.0,   -3.4,   -3.4,   -3.1,   -3.1,   -2.8,   -2.3,   -1.9,   -1.6,  999.0,   -2.8,   -1.9
1999/07/18 08:10,    0.3,    0.3,    0.3,    0.1,    0.1,    0.1,   -0.2,   -0.5,   -0.8,   -1.3,   -1.4,   -1.6,   -1.9,   -2.0,   -2.1,   -2.2,   -2.2,   -2.3,   -2.4,   -2.5,  999.0,   -2.5,  999.0,   -2.7,  999.0,   -2.9,   -2.3,   -2.0,   -1.9,  999.0,   -1.7,   -1.8
1999/07/18 08:20,    0.1,    0.2,    0.2,    0.0,   -0.0,   -0.0,   -0.4,   -0.6,   -0.6,   -1.0,   -1.4,   -1.7,   -2.0,   -2.1,   -2.2,   -2.3,   -2.4,   -2.5,   -2.6,  999.0,   -2.6,  999.0,   -2.4,   -2.6,   -2.8,   -2.6,   -2.0,   -2.0,  999.0,   -2.1,   -1.9,   -1.8
1999/07/18 08:30,   -0.0,   -0.2,   -0.2,   -0.3,   -0.4,   -0.4,   -0.9,   -1.2,   -1.2,   -1.4,   -1.7,   -1.9,   -2.0,   -2.2,   -2.4,   -2.3,   -2.4,   -2.3,   -2.3,   -2.4,   -2.2,   -2.0,   -2.0,   -1.8,   -1.8,   -2.0,   -1.7,   -1.6,   -1.7,   -2.1,  999.0,   -1.9
1999/07/18 08:40,    0.3,    0.2,    0.1,   -0.0,   -0.2,   -0.4,   -0.8,   -0.9,   -1.1,   -1.4,   -1.6,   -1.8,   -2.0,   -2.2,   -2.3,   -2.4,   -2.5,   -2.1,   -1.9,   -1.7,   -1.5,   -1.6,   -1.6,   -1.6,   -1.7,   -1.8,   -1.7,   -1.9,   -1.8,   -2.1,  999.0,   -2.0
1999/07/18 08:50,    0.2,    0.5,    0.1,    0.1,   -0.3,   -0.2,   -0.8,   -0.8,   -1.1,   -1.3,   -1.3,   -1.5,   -1.8,   -1.9,   -2.1,   -2.0,   -1.7,   -1.6,   -1.5,   -1.4,   -1.1,   -1.1,   -1.2,   -1.3,   -1.4,   -1.8,   -2.1,   -2.0,   -2.2,   -2.2,   -1.9,   -1.7
1999/07/18 09:00,   -0.1,    0.1,    0.1,   -0.1,   -0.1,   -0.8,   -0.7,   -1.0,   -1.2,   -1.3,   -1.4,   -1.6,   -1.8,   -2.1,   -2.3,   -2.1,   -1.9,   -1.8,   -1.9,   -1.9,   -1.7,   -1.5,   -1.2,   -1.2,   -1.3,   -1.7,   -1.9,   -2.3,   -2.3,   -2.2,   -2.0,   -1.8
1999/07/18 09:10,    0.1,   -0.1,    0.0,   -0.2,   -0.1,   -0.5,   -0.6,   -0.8,   -1.1,   -1.2,   -1.3,   -1.5,   -1.6,   -1.8,  999.0,  999.0,   -1.7,   -1.7,   -2.0,   -2.2,   -2.4,   -2.2,   -1.6,   -1.4,   -1.4,   -1.4,   -1.6,   -1.9,   -2.0,   -2.1,  999.0,   -1.8
1999/07/18 09:20,    0.1,    0.2,   -0.1,   -0.1,   -0.2,   -0.7,   -0.8,   -1.0,   -1.3,   -1.3,   -1.5,   -1.6,   -1.6,   -1.6,   -1.9,   -1.9,   -1.6,   -1.8,   -2.0,   -2.1,   -2.2,   -2.1,   -1.7,   -1.5,   -1.4,   -1.3,   -1.6,   -1.7,   -1.7,   -1.6,  999.0,   -1.5
1999/07/18 09:30,   -0.2,    0.1,    0.0,   -0.0,   -0.1,   -0.5,   -0.8,   -1.0,   -1.4,   -1.6,   -1.7,   -1.9,   -1.8,   -2.0,   -2.1,  999.0,   -1.8,   -1.9,   -2.1,   -2.2,   -2.2,   -2.1,   -2.0,   -1.7,   -1.8,   -1.6,   -1.6,  999.0,   -1.6,   -1.5,   -1.4,   -1.3
1999/07/18 09:40,    0.2,    0.0,    0.1,    0.0,   -0.1,   -0.5,   -0.9,   -1.2,   -1.6,   -1.6,   -1.7,   -1.7,   -1.7,   -1.8,   -2.0,   -2.1,   -1.9,   -1.9,   -2.0,   -1.9,   -1.9,   -2.1,   -1.8,   -2.4,   -2.4,   -2.3,   -2.1,   -1.9,   -1.6,   -1.6,   -1.4,   -1.5
1999/07/18 09:50,   -0.5,   -0.6,   -0.5,   -0.5,   -0.4,   -0.6,   -1.0,   -1.4,   -1.4,   -1.9,   -1.9,   -2.2,   -2.0,   -2.0,   -2.1,   -2.4,   -2.4,   -2.2,   -1.9,   -1.8,   -1.6,  999.0,  999.0,  999.0,   -1.8,   -1.8,   -1.8,   -1.7,   -1.7,   -1.7,   -1.7,   -1.9
1999/07/18 10:00,   -0.4,   -0.6,   -0.4,   -0.7,   -0.6,  999.0,  999.0,   -1.5,   -1.5,   -1.8,   -2.0,   -2.0,   -2.1,   -2.0,   -2.1,   -2.3,   -2.2,   -2.0,   -1.6,   -1.6,   -1.7,   -1.8,   -1.7,   -1.4,   -1.5,   -1.7,   -1.5,   -1.3,   -1.5,   -1.4,   -1.6,   -2.0
1999/07/18 10:10,   -0.8,   -0.6,   -0.8,   -0.7,   -0.7,   -0.9,   -0.9,   -0.7,   -0.7,   -1.0,   -1.5,   -1.7,   -1.8,   -1.8,   -2.0,   -2.1,   -1.8,   -1.8,   -1.8,   -1.7,   -1.8,   -1.7,   -1.8,   -1.5,   -1.6,   -1.6,   -1.4,   -1.2,   -1.2,   -1.4,   -1.3,  999.0
1999/07/18 10:20,   -0.8,   -1.2,   -1.2,   -1.0,   -0.9,   -1.0,   -1.1,   -1.2,   -1.3,   -1.5,   -2.5,   -2.4,   -2.0,   -2.0,   -2.2,   -2.1,   -2.1,   -1.9,   -2.0,   -1.9,   -1.6,   -1.5,   -1.6,   -1.4,   -1.4,   -1.4,   -1.2,   -1.3,   -1.2,   -1.2,   -1.3,   -1.6
1999/07/18 10:30,   -0.7,   -1.0,   -1.2,   -1.0,   -1.0,   -0.8,   -1.0,   -0.8,   -0.8,   -0.9,   -1.5,   -2.1,   -1.9,   -1.9,   -2.2,   -2.0,   -2.3,   -2.2,   -2.2,   -2.0,   -1.9,   -1.7,   -1.8,   -1.7,   -1.5,   -1.5,   -1.3,   -1.2,   -1.3,   -1.3,   -1.3,   -1.3
1999/07/18 10:40,   -1.2,   -1.8,   -1.9,   -1.7,   -1.5,   -1.5,   -1.4,   -1.4,   -1.5,   -1.6,   -2.1,   -2.1,   -2.0,   -1.8,   -2.0,   -3.2,   -2.9,   -2.2,   -3.7,   -4.0,   -3.9,   -2.6,   -3.6,   -2.5,   -3.7,   -3.5,   -2.5,   -2.6,   -2.2,   -2.4,   -2.4,   -2.3
1999/07/18 10:50,   -1.4,  999.0,  999.0,  999.0,   -1.8,   -1.4,  999.0,   -2.6,   -1.4,   -1.8,   -1.9,   -2.1,   -3.0,   -3.5,   -3.9,   -3.7,   -3.9,   -3.2,   -2.9,   -3.3,   -2.9,   -2.5,   -2.1,   -2.0,   -2.8,   -2.3,   -2.2,   -2.0,   -2.2,   -2.3,   -2.3,   -2.2
1999/07/18 11:00,   -0.9,  999.0,  999.0,   -1.7,   -1.5,   -1.7,   -1.3,   -0.8,   -0.9,   -1.5,   -1.6,   -1.5,   -2.4,   -3.3,   -3.4,   -3.3,   -3.0,   -2.5,   -1.8,   -1.7,   -1.6,   -1.5,   -1.3,   -1.2,   -1.1,   -1.3,   -1.3,   -1.5,   -1.9,   -2.0,   -2.2,   -1.6
1999/07/18 11:10,   -0.9,   -1.4,   -1.6,   -2.1,   -1.8,   -1.7,   -2.3,   -1.5,   -1.7,   -3.1,   -3.2,   -3.3,   -3.2,   -3.2,   -3.3,   -3.2,   -3.2,   -3.3,   -2.8,   -2.5,   -2.1,   -2.2,   -2.0,   -1.8,   -1.6,   -1.6,   -1.6,   -1.6,   -1.7,   -1.6,   -1.6,   -1.4
1999/07/18 11:20,  999.0,   -2.7,   -2.8,   -2.9,   -1.8,   -2.1,   -2.6,   -2.1,   -1.8,   -2.9,   -2.6,   -2.4,   -2.6,   -2.6,   -2.5,   -2.3,   -2.1,   -1.9,   -1.6,   -1.4,   -1.2,   -1.4,   -1.6,   -1.5,   -1.3,   -1.2,   -1.3,   -1.4,   -1.3,   -1.2,   -1.3,   -1.1
1999/07/18 11:30,   -0.8,   -1.0,   -1.4,   -1.5,   -1.2,   -1.6,   -1.6,   -1.8,   -1.6,   -1.6,   -1.6,   -1.2,   -1.7,   -1.6,   -1.5,   -1.5,   -1.5,   -1.5,   -1.2,   -1.3,   -1.5,   -1.3,   -1.5,   -1.7,   -1.6,   -1.5,   -1.3,   -1.5,  999.0,   -1.2,   -1.4,  999.0
1999/07/18 11:40,   -0.7,   -1.3,   -1.4,   -1.6,   -1.4,   -1.5,   -2.9,   -2.7,   -2.6,   -2.4,   -2.6,   -1.9,   -1.6,   -1.6,   -1.6,   -1.7,   -1.8,   -1.8,   -1.5,   -1.4,   -1.0,   -1.2,   -1.4,   -1.5,   -1.6,   -1.6,   -1.4,  999.0,   -1.2,   -1.2,   -1.2,  999.0
1999/07/18 11:50,  999.0,   -3.2,   -3.2,   -3.4,   -3.5,   -3.9,   -3.8,   -3.8,   -3.9,   -3.6,   -3.8,  999.0,  999.0,  999.0,   -2.0,   -2.0,   -2.2,   -1.6,   -1.5,   -1.3,   -1.1,   -1.0,   -1.2,   -1.6,   -1.7,   -1.4,  999.0,  999.0,  999.0,   -1.1,  999.0,  999.0
1999/07/18 12:00,   -3.2,   -2.9,   -3.0,   -3.3,   -2.9,   -3.4,   -3.2,  999.0,   -3.0,   -3.3,   -2.8,   -2.1,   -1.8,   -1.7,   -1.6,   -1.5,   -1.6,   -1.4,   -1.3,   -1.4,   -1.4,   -1.1,   -1.4,   -1.6,   -1.4,   -1.5,   -1.1,  999.0,   -1.1,   -1.3,   -1.2,  999.0
1999/07/18 12:10,  999.0,   -4.8,   -4.8,   -4.5,   -4.9,   -5.1,   -4.8,   -4.4,   -4.0,   -3.9,   -3.5,   -3.0,   -2.8,   -1.9,   -2.0,   -2.2,   -2.3,   -2.0,   -1.7,   -1.7,   -1.6,   -1.3,   -1.4,   -1.6,   -1.5,   -1.6,   -1.3,   -1.3,  999.0,  999.0,   -1.2,   -1.4
1999/07/18 12:20,   -3.4,   -3.6,   -3.6,   -3.7,   -3.4,   -3.0,   -2.5,   -2.4,   -2.1,   -2.0,   -1.7,   -1.6,   -1.2,   -1.1,   -1.1,   -1.3,   -1.3,   -1.2,   -1.2,   -1.0,   -0.6,   -1.0,   -1.2,   -1.4,   -1.2,  999.0,   -1.3,   -1.2,   -1.5,   -1.4,   -1.2,   -1.4
1999/07/18 12:30,   -2.6,   -2.9,   -3.2,   -3.4,   -3.4,   -3.2,   -2.8,   -2.4,   -1.5,   -1.5,   -1.4,   -1.5,   -1.3,   -1.2,   -1.3,   -1.1,   -1.3,   -1.2,   -1.2,   -1.2,   -1.0,   -1.0,   -1.0,   -1.1,   -1.1,  999.0,  999.0,   -1.6,  999.0,  999.0,   -1.3,  999.0
1999/07/18 12:40,   -2.9,   -3.0,   -3.7,   -3.9,   -4.0,   -3.7,   -3.4,   -3.0,   -2.3,   -2.1,   -2.0,   -1.7,   -1.4,   -1.5,   -1.6,   -1.5,   -1.4,   -1.3,   -1.2,   -1.0,   -1.2,   -1.1,   -0.8,   -1.0,   -0.9,   -1.0,   -1.1,  999.0,  999.0,   -0.9,   -1.0,   -1.2
1999/07/18 12:50,   -3.4,   -3.5,   -3.8,   -4.0,   -4.1,   -3.9,   -3.6,   -3.2,   -2.9,   -2.8,   -2.6,   -2.5,   -2.2,   -2.1,   -1.9,   -1.8,   -1.6,   -1.4,   -1.2,   -1.0,   -0.9,   -0.8,   -0.8,   -0.9,   -0.8,   -1.0,   -0.9,   -0.7,   -0.9,   -1.2,   -1.1,   -1.1
1999/07/18 13:00,   -3.6,   -3.7,   -3.7,   -3.7,   -3.7,   -3.7,   -3.2,   -2.6,   -2.2,   -2.2,   -2.2,   -2.2,   -2.0,   -1.7,   -1.5,   -1.6,   -1.5,   -1.3,   -1.2,   -1.1,   -1.0,   -0.9,   -0.8,   -0.9,   -1.0,  999.0,   -0.8,   -0.7,   -1.0,   -1.0,   -1.2,   -1.3
1999/07/18 13:10,   -3.6,   -3.7,   -3.8,   -3.8,   -3.9,   -3.8,   -3.4,   -2.8,   -3.0,   -2.5,   -2.7,   -2.8,   -2.8,   -2.7,   -2.6,   -2.1,   -2.0,   -1.7,   -1.4,   -1.2,   -1.0,   -0.9,   -0.8,   -0.8,   -0.9,   -0.9,   -0.9,   -1.1,   -1.1,   -1.1,   -1.1,   -1.0
1999/07/18 13:20,   -3.3,   -3.4,   -3.4,   -3.4,   -3.1,   -2.7,   -1.9,   -1.5,   -1.1,   -0.9,   -0.8,   -1.0,   -1.1,   -1.1,   -1.2,   -1.2,   -1.2,   -1.1,   -1.2,   -1.0,   -1.0,   -1.0,   -0.8,   -0.9,   -0.9,   -0.9,   -1.0,   -1.4,   -1.2,   -1.2,   -1.0,   -0.9
1999/07/18 13:30,   -3.6,   -3.8,   -3.8,   -3.6,   -3.3,   -2.8,   -2.1,   -1.5,   -1.2,   -0.7,   -0.8,   -1.1,   -1.1,   -1.2,   -1.2,   -1.2,   -1.2,   -1.1,   -0.9,   -1.0,   -1.0,   -1.1,   -1.1,   -0.9,   -0.7,   -0.7,   -0.8,   -0.9,  999.0,  999.0,   -1.0,   -0.6
1999/07/18 13:40,   -3.9,   -3.6,   -3.8,   -3.8,  999.0,   -3.5,   -2.8,   -2.3,   -1.6,   -1.2,   -1.1,   -1.0,   -0.7,   -0.8,   -1.0,   -0.8,   -0.7,   -0.7,   -0.7,   -1.0,   -1.1,   -1.4,   -1.2,   -1.0,   -0.9,   -0.9,   -1.2,   -1.1,   -1.2,   -1.0,  999.0,   -0.6
1999/07/18 13:50,   -3.6,   -3.7,   -3.8,   -3.4,   -3.1,   -2.9,   -1.9,   -1.6,   -1.1,   -1.3,   -1.4,   -1.3,   -1.1,   -1.1,   -1.2,   -1.1,   -0.8,   -1.0,   -1.1,   -1.5,   -1.4,   -1.7,   -1.4,   -1.4,   -1.2,   -1.4,   -1.4,   -1.3,   -1.3,  999.0,   -1.0,   -1.1
1999/07/18 14:00,   -2.2,   -2.4,   -2.5,   -2.6,   -2.1,   -1.5,   -1.5,   -1.3,   -1.3,   -1.3,   -1.3,   -1.3,   -1.1,   -1.0,   -1.2,   -1.0,   -1.1,   -1.1,   -1.3,   -1.5,   -1.5,   -1.7,   -1.7,   -1.6,   -1.6,   -1.4,   -1.3,   -1.2,   -0.9,   -1.1,   -1.1,  999.0
1999/07/18 14:10,   -1.8,   -2.3,   -2.0,  999.0,   -2.6,   -2.4,   -2.2,   -2.1,   -2.1,   -2.0,   -2.0,   -1.8,   -1.7,   -1.6,   -1.5,   -1.3,   -1.2,   -1.4,   -1.3,   -1.0,   -1.1,   -1.3,   -1.5,   -1.6,  999.0,  999.0,   -0.9,   -1.0,   -1.1,   -1.1,   -0.9,   -1.0
1999/07/18 14:20,   -3.0,   -3.0,   -1.9,   -2.6,   -2.7,   -2.6,   -2.3,   -2.2,   -1.9,   -1.7,   -1.5,   -1.5,   -1.4,   -1.0,   -0.8,   -0.9,   -1.2,   -1.2,   -1.0,   -1.0,   -1.3,   -1.2,   -1.3,   -1.3,   -1.1,   -0.9,   -1.0,  999.0,  999.0,   -0.9,   -0.9,   -0.8
1999/07/18 14:30,   -1.9,   -1.8,   -1.8,   -1.9,   -1.9,   -1.7,   -1.8,   -1.5,   -1.2,   -1.1,   -0.8,   -0.7,   -0.6,   -0.5,   -0.5,   -0.7,   -0.8,   -0.9,   -0.9,   -0.7,   -0.8,   -1.0,   -1.1,   -1.0,   -0.9,   -1.0,  999.0,  999.0,   -0.7,   -0.9,  999.0,  999.0
1999/07/18 14:40,   -2.2,   -2.1,   -1.9,   -1.9,   -1.7,   -1.8,   -1.8,   -1.8,   -1.5,   -1.3,   -1.1,   -0.8,   -0.6,   -0.5,   -0.5,   -0.6,   -0.5,   -0.5,   -0.7,   -0.6,   -0.6,   -0.6,   -0.7,   -0.9,   -1.1,   -1.1,  999.0,   -1.0,   -1.1,   -0.9,  999.0,  999.0
1999/07/18 14:50,   -1.9,   -2.3,   -2.2,   -2.0,   -1.5,   -1.7,   -1.6,   -1.3,   -1.0,   -0.7,   -0.6,   -0.5,   -0.4,   -0.6,   -0.4,   -0.2,   -0.5,   -0.5,   -0.5,   -0.8,   -0.8,   -0.8,   -0.8,   -0.9,   -1.0,  999.0,   -0.9,   -0.9,   -0.8,   -0.6,  999.0,  999.0
1999/07/18 15:00,   -1.7,   -1.6,   -1.6,   -1.6,   -1.4,   -1.4,   -1.4,   -1.0,   -0.9,   -0.6,   -0.6,   -0.4,   -0.4,   -0.4,   -0.5,   -0.3,   -0.3,   -0.5,   -0.6,   -0.8,   -0.7,   -0.8,   -1.1,   -1.0,   -1.3,   -1.3,   -1.2,  999.0,  999.0,   -0.9,  999.0,  999.0
1999/07/18 15:10,   -1.0,   -1.2,   -1.3,   -1.2,   -1.1,   -2.4,   -2.2,   -1.8,   -1.2,   -0.7,   -1.0,   -0.8,   -0.7,   -1.3,   -1.0,   -0.9,   -1.0,   -0.9,   -1.3,   -0.7,   -0.5,   -0.5,   -0.7,   -1.1,   -1.2,   -1.2,   -1.2,  999.0,  999.0,  999.0,  999.0,  999.0
1999/07/18 15:20,  999.0,   -3.8,   -3.6,   -3.4,   -3.4,   -3.2,   -3.0,   -2.9,   -2.8,   -2.7,   -2.5,   -2.2,   -1.9,   -1.5,   -1.2,   -0.9,   -1.3,   -1.4,   -1.4,   -1.2,   -0.9,   -0.6,   -0.6,   -0.8,   -0.9,   -1.0,   -1.0,   -0.9,  999.0,  999.0,   -0.7,  999.0
1999/07/18 15:30,   -3.2,   -3.4,   -3.5,   -3.2,   -3.0,   -3.0,   -2.7,   -2.7,   -3.0,   -3.0,   -2.5,   -2.2,   -1.9,   -1.9,   -1.4,   -1.9,   -2.2,   -1.9,   -1.6,   -1.5,   -1.3,   -1.2,   -1.1,   -1.1,   -1.1,   -1.2,   -1.2,   -1.1,   -1.1,  999.0,   -0.8,  999.0
1999/07/18 15:40,   -3.3,   -2.0,   -2.5,   -3.6,   -3.6,   -3.2,   -3.1,   -2.9,   -2.6,   -2.5,   -2.4,   -2.1,   -1.9,   -1.7,   -1.4,   -1.4,   -1.7,   -2.0,   -1.9,   -1.5,   -1.4,   -1.4,   -1.3,   -1.3,   -0.8,   -0.9,   -1.1,   -1.1,   -1.0,   -0.8,   -0.9,   -1.1
1999/07/18 15:50,   -0.8,   -1.0,   -1.0,   -1.2,   -3.3,   -3.3,   -3.2,   -2.9,   -2.7,   -2.7,   -2.7,   -2.5,   -2.4,   -2.1,   -1.8,   -1.7,   -1.6,   -2.0,   -2.2,   -1.9,   -1.6,   -1.4,   -1.4,   -1.6,   -1.3,   -1.4,   -1.3,   -1.3,   -1.2,  999.0,  999.0,   -1.3
1999/07/18 16:00,   -3.6,   -3.5,   -3.8,   -4.0,   -3.8,   -4.0,   -3.8,   -3.6,   -3.3,   -3.4,   -3.0,   -2.9,   -2.8,   -2.7,   -1.9,   -2.2,   -2.1,   -2.0,   -1.8,   -1.6,   -1.5,   -1.4,   -1.3,   -1.3,   -1.2,  999.0,   -1.3,  999.0,  999.0,  999.0,  999.0,  999.0
1999/07/18 16:10,   -2.7,   -2.7,   -2.4,   -2.9,   -3.0,   -2.7,   -2.4,   -2.4,   -2.2,   -2.0,   -1.9,   -1.8,   -1.6,   -1.4,   -1.4,   -1.5,   -1.5,   -1.5,   -1.5,   -1.2,   -1.2,   -1.1,   -1.1,   -0.9,   -1.0,   -0.9,   -0.9,   -1.0,  999.0,   -1.1,  999.0,  999.0
1999/07/18 16:20,   -2.9,   -1.6,   -1.8,   -3.1,   -3.3,   -3.0,   -2.9,   -2.6,   -2.5,   -2.3,   -2.3,   -2.5,   -2.5,   -2.5,   -2.4,   -2.3,   -2.2,   -2.1,   -1.8,   -1.7,   -1.4,   -1.3,   -1.3,   -1.3,   -1.1,   -1.2,  999.0,  999.0,  999.0,  999.0,  999.0,  999.0
1999/07/18 16:30,   -4.4,   -4.1,   -5.0,   -5.0,   -4.7,   -4.3,   -4.2,   -4.0,   -3.8,   -3.6,   -3.4,   -3.2,   -3.1,   -3.0,   -2.9,   -2.6,   -2.2,   -1.6,   -1.6,   -1.0,   -1.1,   -1.2,   -1.2,   -1.1,   -1.0,   -1.2,   -1.1,  999.0,  999.0,  999.0,  999.0,  999.0
1999/07/18 16:40,   -4.7,   -4.9,   -5.1,   -4.8,   -4.3,   -4.2,   -3.8,   -3.7,   -3.7,   -3.5,   -3.4,   -3.4,   -3.8,   -3.5,   -2.8,   -2.5,   -1.9,   -1.6,   -1.4,   -1.1,   -0.9,   -0.6,   -0.8,   -0.7,   -0.6,  999.0,   -0.8,  999.0,  999.0,  999.0,  999.0,  999.0
1999/07/18 16:50,   -3.7,   -4.7,   -5.0,   -5.1,   -4.6,   -4.4,   -3.8,   -4.0,   -3.8,   -3.6,   -3.3,   -3.0,   -2.9,   -2.7,   -2.6,   -2.5,   -2.5,   -1.6,   -1.4,   -1.0,   -0.9,   -0.8,   -0.7,   -0.6,   -0.5,  999.0,   -0.8,  999.0,  999.0,  999.0,  999.0,  999.0
1999/07/18 17:00,   -1.2,   -1.5,   -1.6,   -1.8,   -1.8,   -1.8,   -1.8,   -1.7,   -1.6,   -1.3,   -1.4,   -1.2,   -1.3,   -1.1,   -1.0,   -0.9,   -0.8,   -0.9,   -0.8,   -0.9,   -0.8,   -0.7,   -0.5,   -0.5,   -0.4,   -0.7,   -0.9,  999.0,  999.0,  999.0,  999.0,  999.0
1999/07/18 17:10,   -1.4,   -1.4,   -1.5,   -1.5,   -1.6,   -1.7,   -1.6,   -1.4,   -1.3,   -1.2,   -1.1,   -1.0,   -0.9,   -0.9,   -0.8,   -0.5,   -0.6,   -0.6,   -0.7,   -0.8,   -0.6,   -0.6,   -0.6,   -0.6,   -0.6,   -1.1,   -1.1,  999.0,   -1.3,  999.0,  999.0,  999.0
1999/07/18 17:20,   -1.2,   -1.5,   -1.6,   -1.6,   -2.6,   -2.9,   -2.8,   -2.2,   -2.1,   -1.8,   -1.0,   -1.2,   -1.1,   -1.0,   -0.9,   -0.7,   -0.6,   -0.7,   -0.7,   -0.7,   -0.6,   -0.5,   -0.5,   -0.5,   -0.6,   -0.8,   -1.0,  999.0,   -0.9,  999.0,  999.0,  999.0
1999/07/18 17:30,   -1.0,   -1.4,   -2.6,   -2.1,   -2.8,   -3.4,   -3.1,   -2.7,   -2.5,   -2.5,   -2.4,   -2.2,   -1.8,   -1.6,   -1.6,   -1.1,   -0.9,   -1.0,   -0.7,   -0.8,   -0.5,   -0.5,   -0.7,  999.0,  999.0,   -1.0,  999.0,   -0.9,  999.0,   -1.0,  999.0,  999.0
1999/07/18 17:40,   -0.7,   -1.3,  999.0,   -3.8,   -3.9,   -3.0,   -3.4,   -3.6,   -3.1,   -2.8,   -2.5,   -2.4,   -2.3,   -1.9,   -1.3,   -1.1,   -1.1,   -0.8,   -0.6,   -0.6,   -0.6,   -0.6,   -0.7,  999.0,   -0.6,   -0.8,   -0.7,  999.0,  999.0,  999.0,  999.0,  999.0
1999/07/18 17:50,   -1.2,   -1.4,   -3.2,   -3.9,   -3.6,   -3.8,   -3.4,   -3.4,   -3.2,   -2.9,   -2.5,   -2.4,   -2.0,   -1.6,   -1.1,   -0.8,   -0.9,   -0.6,   -0.4,   -0.4,   -0.6,   -0.7,   -0.8,  999.0,  999.0,  999.0,  999.0,  999.0,  999.0,   -1.0,  999.0,  999.0
1999/07/18 18:00,   -2.1,   -1.9,   -4.7,   -5.6,   -5.2,   -4.9,   -4.2,   -4.1,   -3.7,   -3.3,   -3.2,   -2.9,   -2.5,   -2.3,   -1.8,   -1.3,   -1.0,   -0.5,   -0.4,   -0.4,   -0.6,   -0.8,  999.0,  999.0,  999.0,  999.0,  999.0,  999.0,  999.0,  999.0,  999.0,  999.0
1999/07/18 18:10,   -2.8,   -3.7,   -3.2,   -3.8,   -3.4,   -2.9,   -2.3,   -1.7,   -1.0,   -1.6,   -1.2,   -1.1,   -1.3,   -1.5,   -1.2,   -0.9,   -0.8,   -0.4,   -0.3,   -0.1,   -0.3,  999.0,  999.0,  999.0,  999.0,  999.0,  999.0,  999.0,   -1.3,  999.0,  999.0,  999.0
1999/07/18 18:20,   -1.3,   -1.6,   -1.7,   -1.7,   -1.9,   -1.9,   -2.4,   -1.9,   -1.5,   -1.5,   -1.6,   -1.8,   -1.9,   -1.6,   -1.4,   -1.4,   -1.1,   -0.9,   -0.4,   -0.3,   -0.5,  999.0,  999.0,  999.0,  999.0,  999.0,  999.0,  999.0,  999.0,  999.0,  999.0,  999.0
1999/07/18 18:30,   -1.5,   -1.6,   -2.5,   -3.6,   -3.6,   -2.2,   -2.8,   -2.7,   -2.5,   -2.3,   -2.9,   -2.5,   -2.6,   -2.0,   -1.6,   -1.6,   -1.4,   -1.2,   -1.0,   -0.6,   -0.8,  999.0,  999.0,  999.0,  999.0,  999.0,  999.0,  999.0,  999.0,  999.0,  999.0,  999.0
1999/07/18 18:40,   -5.2,   -5.0,   -5.4,   -5.6,   -5.4,   -5.1,   -5.0,   -4.7,   -4.4,   -3.8,   -3.3,   -3.4,   -3.3,   -2.7,   -2.1,   -2.1,   -2.1,   -1.7,   -1.3,   -0.7,   -0.5,  999.0,  999.0,  999.0,  999.0,  999.0,  999.0,  999.0,  999.0,  999.0,   -0.8,  999.0
1999/07/18 18:50,   -5.3,   -5.1,   -4.6,   -4.8,   -4.8,   -4.9,   -3.9,   -3.6,   -3.1,   -2.8,   -2.5,   -2.6,   -2.6,   -2.4,   -2.3,   -2.0,   -1.7,   -1.5,   -1.8,   -1.0,   -0.9,  999.0,  999.0,  999.0,  999.0,  999.0,   -1.1,  999.0,  999.0,   -1.1,   -1.0,  999.0
1999/07/18 19:00,   -1.9,   -1.0,   -0.9,   -1.0,   -1.2,   -1.5,   -1.3,   -1.0,   -0.7,   -0.7,   -0.8,   -1.1,   -1.2,   -1.1,   -1.1,   -1.3,   -1.3,   -1.3,   -1.0,   -0.8,  999.0,  999.0,  999.0,  999.0,  999.0,  999.0,  999.0,  999.0,  999.0,  999.0,  999.0,  999.0
1999/07/18 19:10,   -1.6,   -1.7,   -1.8,   -1.8,   -1.7,   -1.4,   -0.9,   -0.7,   -0.7,   -0.8,   -1.0,   -1.1,   -1.3,   -1.4,   -1.4,   -1.5,   -1.4,   -1.5,   -1.2,   -1.0,  999.0,  999.0,  999.0,  999.0,  999.0,  999.0,  999.0,   -1.1,  999.0,  999.0,  999.0,  999.0
1999/07/18 19:20,   -2.4,   -1.6,   -2.8,   -2.2,   -3.4,   -3.1,   -2.7,   -2.3,   -2.0,   -1.7,   -1.8,   -1.7,   -1.6,   -1.5,   -1.5,   -1.4,   -1.5,   -1.4,   -1.1,   -1.0,  999.0,  999.0,  999.0,  999.0,  999.0,  999.0,  999.0,  999.0,  999.0,  999.0,  999.0,  999.0
1999/07/18 19:30,   -3.4,   -3.8,   -3.0,   -3.0,   -2.4,   -2.2,   -2.2,   -2.0,   -1.7,   -1.4,   -1.4,   -1.1,   -1.3,   -1.3,   -1.2,   -1.1,   -1.2,   -1.2,   -0.9,   -0.8,   -0.8,  999.0,  999.0,  999.0,  999.0,  999.0,  999.0,  999.0,  999.0,  999.0,  999.0,  999.0
1999/07/18 19:40,   -1.7,   -1.7,   -2.0,   -1.8,   -1.6,   -1.5,   -1.6,   -1.7,   -1.1,   -1.1,   -0.9,   -1.3,   -1.5,   -1.8,   -1.4,   -1.1,   -1.2,   -1.2,   -0.9,   -0.8,  999.0,  999.0,  999.0,   -0.9,   -1.0,   -1.1,  999.0,  999.0,  999.0,  999.0,  999.0,  999.0
1999/07/18 19:50,   -1.5,   -1.4,   -1.6,   -1.7,   -1.2,   -1.0,   -0.8,   -0.6,   -0.5,   -0.5,   -0.9,   -1.1,   -1.4,   -1.4,   -1.4,   -1.3,   -1.4,   -1.4,   -1.2,   -1.3,  999.0,  999.0,  999.0,   -1.3,   -1.4,  999.0,  999.0,  999.0,  999.0,   -1.0,  999.0,  999.0
1999/07/18 20:00,   -1.8,   -1.8,   -1.9,   -1.9,   -1.4,   -1.2,   -1.1,   -1.0,   -0.9,   -0.8,   -0.8,   -1.3,   -1.4,   -1.1,   -1.2,   -1.3,   -1.2,   -1.2,   -0.9,   -0.8,  999.0,  999.0,  999.0,   -1.1,  999.0,  999.0,  999.0,  999.0,  999.0,  999.0,  999.0,  999.0
1999/07/18 20:10,   -2.6,  999.0,  999.0,  999.0,   -3.1,   -2.8,   -1.8,   -1.7,   -1.0,   -0.6,   -0.8,   -1.4,  999.0,   -1.7,   -1.9,   -2.2,   -2.1,   -1.6,   -0.9,   -0.7,   -1.1,  999.0,  999.0,  999.0,  999.0,  999.0,  999.0,  999.0,  999.0,  999.0,  999.0,  999.0
1999/07/18 20:20,   -2.3,   -1.9,   -2.3,   -1.8,   -1.3,  999.0,   -1.2,   -1.0,   -0.9,   -1.2,   -1.2,   -1.2,   -1.3,   -1.5,   -1.4,   -1.3,   -1.1,   -0.9,   -0.8,   -0.8,  999.0,  999.0,  999.0,  999.0,  999.0,   -0.7,  999.0,  999.0,   -0.9,  999.0,  999.0,   -1.2
1999/07/18 20:30,   -1.7,   -1.8,   -2.1,   -1.6,   -1.6,   -1.3,   -1.2,   -1.0,   -1.0,   -1.0,   -1.0,   -0.8,   -1.1,   -1.3,   -1.4,  999.0,   -1.2,   -0.9,   -0.8,   -1.0,   -0.9,  999.0,  999.0,  999.0,  999.0,  999.0,  999.0,  999.0,  999.0,  999.0,  999.0,  999.0
1999/07/18 20:40,   -1.8,   -2.0,   -1.8,   -1.9,   -2.4,   -2.4,   -1.7,   -1.5,   -1.2,   -1.1,   -1.1,   -1.0,   -0.9,   -1.0,   -1.0,   -1.2,   -1.1,   -0.7,   -0.7,   -0.5,  999.0,  999.0,  999.0,  999.0,   -0.8,  999.0,  999.0,  999.0,  999.0,  999.0,  999.0,  999.0
1999/07/18 20:50,   -1.6,  999.0,  999.0,   -3.4,   -3.2,   -2.8,   -2.2,   -1.7,   -1.7,   -1.3,   -1.4,   -1.3,   -1.2,   -1.0,   -1.1,   -1.2,   -1.2,   -0.9,   -0.8,   -0.7,  999.0,  999.0,  999.0,   -0.8,   -0.9,   -1.1,  999.0,  999.0,  999.0,  999.0,  999.0,  999.0
1999/07/18 21:00,   -3.5,   -3.5,   -3.1,   -2.6,   -1.8,   -1.3,   -2.2,   -1.4,   -1.4,   -1.1,   -1.1,   -1.3,   -1.2,   -1.2,   -1.3,   -1.4,   -1.0,   -0.7,   -0.4,   -0.6,   -0.6,  999.0,  999.0,   -0.7,  999.0,  999.0,  999.0,  999.0,  999.0,  999.0,  999.0,  999.0
1999/07/18 21:10,   -2.9,   -3.0,   -2.3,   -2.0,   -1.4,   -1.0,   -0.7,   -0.6,   -0.9,   -1.1,   -1.3,   -1.3,   -1.3,   -1.4,   -1.3,   -1.4,  999.0,   -0.2,   -0.0,  999.0,  999.0,  999.0,   -0.7,  999.0,  999.0,  999.0,  999.0,  999.0,  999.0,  999.0,  999.0,  999.0
1999/07/18 21:20,   -2.2,   -2.6,   -2.3,   -1.5,   -1.0,   -1.0,   -0.6,   -0.6,   -0.9,   -0.9,   -0.9,   -1.0,   -1.2,   -1.3,   -1.4,   -1.3,   -0.9,   -0.4,   -0.5,   -0.6,  999.0,  999.0,  999.0,  999.0,   -0.7,  999.0,  999.0,  999.0,  999.0,  999.0,  999.0,  999.0
1999/07/18 21:30,   -2.8,   -2.4,   -2.2,   -1.7,   -1.3,   -0.9,   -0.8,   -1.0,   -0.9,   -1.1,   -1.2,   -1.2,   -1.4,   -1.3,   -1.2,   -1.2,   -0.8,   -0.8,   -0.7,  999.0,  999.0,  999.0,  999.0,  999.0,  999.0,  999.0,  999.0,  999.0,  999.0,  999.0,  999.0,  999.0
1999/07/18 21:40,   -2.0,   -2.2,   -2.2,   -1.7,   -1.1,   -1.1,   -0.9,   -0.9,   -0.7,   -0.9,   -1.1,   -1.1,   -1.2,   -1.2,   -1.2,   -1.0,   -0.7,   -0.5,   -0.4,  999.0,  999.0,  999.0,   -0.7,  999.0,  999.0,  999.0,  999.0,  999.0,   -1.1,  999.0,  999.0,  999.0
1999/07/18 21:50,   -2.1,   -1.8,   -2.3,   -1.7,   -1.3,   -1.2,   -1.2,   -1.1,   -0.6,   -0.8,   -0.9,   -1.2,   -1.1,   -1.1,   -1.1,   -0.9,   -0.7,   -0.7,   -0.6,  999.0,  999.0,  999.0,   -0.7,   -0.5,  999.0,  999.0,  999.0,  999.0,  999.0,  999.0,  999.0,  999.0
1999/07/18 22:00,   -2.0,   -2.1,   -2.1,   -1.3,   -0.9,   -0.9,   -0.9,   -0.8,   -0.8,   -0.6,   -0.8,   -1.3,   -1.1,   -1.1,   -1.1,   -1.0,   -0.7,   -0.7,  999.0,  999.0,  999.0,  999.0,  999.0,  999.0,   -0.5,   -0.8,  999.0,  999.0,  999.0,  999.0,  999.0,  999.0
1999/07/18 22:10,   -1.9,   -2.0,   -2.1,   -1.1,   -0.9,   -0.9,   -0.8,   -0.8,   -0.9,   -0.9,   -0.9,   -1.1,   -1.3,   -1.3,   -1.2,   -1.1,   -0.9,   -0.7,  999.0,  999.0,  999.0,  999.0,  999.0,  999.0,   -0.4,  999.0,   -1.0,  999.0,  999.0,  999.0,  999.0,  999.0
1999/07/18 22:20,   -1.8,   -1.9,   -1.8,   -1.1,   -0.9,   -0.8,   -0.8,   -0.9,   -0.9,   -0.7,   -0.7,   -0.9,   -1.0,   -0.9,   -0.7,   -0.8,   -0.8,   -0.7,  999.0,   -0.4,  999.0,  999.0,  999.0,   -0.4,  999.0,  999.0,   -0.9,  999.0,  999.0,  999.0,  999.0,  999.0
1999/07/18 22:30,   -1.6,   -1.6,   -1.6,   -0.9,   -0.8,   -0.7,   -0.7,   -0.8,   -0.9,   -0.7,   -1.1,   -0.9,   -0.9,   -0.9,   -0.7,   -0.9,   -0.9,   -0.8,  999.0,  999.0,   -0.6,   -0.5,  999.0,  999.0,  999.0,  999.0,   -1.0,  999.0,  999.0,  999.0,  999.0,  999.0
1999/07/18 22:40,   -3.1,   -2.9,   -2.6,   -2.2,   -1.4,   -1.2,   -1.0,   -1.3,   -1.5,   -1.5,   -1.7,   -1.5,   -1.3,   -1.1,   -1.1,   -1.0,   -0.9,   -0.8,  999.0,  999.0,  999.0,   -0.5,   -0.4,   -0.4,   -0.4,   -1.0,   -1.2,  999.0,  999.0,  999.0,  999.0,  999.0
1999/07/18 22:50,   -3.4,   -2.9,   -3.1,   -1.7,   -1.3,   -1.1,   -0.9,   -0.9,   -0.8,   -0.8,   -1.1,   -1.4,   -1.4,   -1.3,   -0.9,   -0.9,   -0.9,   -0.8,   -0.5,   -0.4,   -0.5,   -0.5,   -0.5,   -0.2,   -0.5,   -0.9,   -1.1,  999.0,  999.0,  999.0,  999.0,  999.0
1999/07/18 23:00,   -3.2,   -3.2,   -2.5,   -1.2,   -0.8,   -0.5,   -0.6,   -0.7,   -0.7,   -0.7,   -0.8,   -0.9,   -0.9,   -1.0,   -0.7,   -0.8,   -0.8,   -0.8,  999.0,  999.0,   -0.4,   -0.5,   -0.6,  999.0,  999.0,   -0.9,   -1.3,  999.0,  999.0,  999.0,  999.0,  999.0
1999/07/18 23:10,   -1.5,   -1.5,   -1.5,   -1.0,   -0.7,   -0.6,   -0.6,   -0.7,   -0.7,   -0.7,   -0.9,   -1.0,   -0.9,   -0.7,   -1.0,   -0.9,   -0.9,   -0.8,  999.0,   -0.5,   -0.5,   -0.4,  999.0,  999.0,   -0.7,   -0.7,   -1.1,  999.0,  999.0,  999.0,  999.0,  999.0
1999/07/18 23:20,   -1.3,   -1.3,   -1.3,   -0.8,   -0.4,   -0.3,   -0.5,   -0.6,   -0.6,   -0.7,   -0.7,   -0.7,   -0.9,   -0.9,   -0.9,   -1.0,   -0.8,   -0.7,   -0.5,  999.0,   -0.2,   -0.1,  999.0,  999.0,   -0.5,   -0.7,  999.0,   -0.9,  999.0,  999.0,  999.0,  999.0
1999/07/18 23:30,   -1.8,   -1.9,   -1.7,   -1.2,   -0.7,   -0.5,   -0.5,   -0.6,   -0.6,   -0.7,   -0.8,   -0.9,   -1.1,   -1.2,   -1.1,   -1.0,   -0.9,   -0.6,   -0.5,   -0.3,   -0.0,  999.0,  999.0,   -0.5,   -0.6,   -0.7,  999.0,   -1.0,  999.0,  999.0,  999.0,  999.0
1999/07/18 23:40,   -1.9,   -2.6,   -2.3,   -1.7,   -1.6,   -1.9,   -1.7,   -1.5,   -1.4,   -1.7,   -1.8,   -2.6,   -2.4,   -2.1,   -1.9,   -1.8,   -1.6,   -1.2,   -1.0,   -0.2,  999.0,   -0.3,  999.0,   -0.6,   -0.7,   -0.8,  999.0,   -1.3,  999.0,  999.0,  999.0,  999.0
1999/07/18 23:50,   -4.1,   -4.5,   -4.8,   -3.8,   -3.4,   -3.1,   -2.7,   -3.2,   -3.1,   -3.1,   -2.8,   -3.0,   -2.9,   -2.8,   -2.7,   -2.4,   -2.3,   -1.6,   -0.9,   -0.5,  999.0,  999.0,  999.0,   -0.5,   -0.7,   -0.7,  999.0,  999.0,  999.0,  999.0,  999.0,  999.0
